Temperature
20 21 21 21 18 18 19 19 20 20 20 20 20 19 19 18 18 17 17 17 17 17 17 17 18 18 18 18 18 18 18 18 18 18 17 17 18 18 17 17 17 17 18 18 18 18 18 18 18
21 21 21 20 17 18 19 20 20 21 21 21 20 19 18 17 17 17 17 17 17 17 18 17 17 17 18 18 18 18 18 18 18 18 17 17 17 17 17 17 17 17 17 17 18 18 18 18 18
21 21 21 17 18 18 19 20 20 21 21 21 20 19 18 17 17 17 17 17 17 18 18 17 17 17 18 18 18 17 18 17 17 17 17 17 17 17 17 17 17 17 17 17 17 18 17 17 17
21 21 20 18 19 19 19 20 20 21 21 20 19 18 18 18 18 18 17 17 18 17 17 17 17 18 18 18 18 17 17 17 17 17 17 17 17 17 17 17 17 17 17 17 17 17 17 17 17
21 21 18 18 19 20 20 21 21 21 20 19 19 17 17 18 18 18 17 17 18 17 17 17 17 17 18 18 18 17 17 17 17 17 17 17 17 17 17 17 17 17 17 17 17 17 17 17 17
21 19 18 18 19 20 20 21 21 20 20 19 18 17 17 18 18 18 17 18 18 18 17 17 17 17 17 18 17 17 17 17 17 17 17 17 17 17 17 17 17 17 17 17 17 17 17 17 17
20 17 18 19 19 20 20 21 21 20 20 20 19 17 17 17 18 18 18 18 18 18 17 17 17 17 17 17 17 17 17 17 17 17 17 17 17 17 17 17 17 17 17 17 17 17 17 17 17
22 18 19 19 19 20 21 21 21 21 20 20 20 18 17 18 18 18 18 18 18 17 17 17 17 17 17 17 17 17 17 17 17 17 17 17 17 17 17 17 17 17 17 17 17 17 17 17 17
22 18 18 19 19 20 21 21 21 21 20 20 19 19 19 18 18 18 18 18 18 18 17 17 17 17 17 17 17 17 17 17 17 17 17 17 17 17 17 17 17 17 17 17 17 17 17 17 16
21 18 20 20 20 20 21 21 21 20 19 19 19 19 18 18 18 18 18 18 18 18 18 17 17 17 17 17 17 17 17 17 17 17 17 17 17 17 17 17 17 17 17 17 17 17 17 17 16
21 19 20 21 22 22 21 21 21 20 18 19 19 18 18 18 18 18 18 18 18 18 18 18 17 17 17 17 17 17 17 17 17 17 17 17 17 17 17 17 17 17 17 17 17 17 17 16 16
21 21 22 22 22 22 21 21 21 20 20 20 20 19 19 18 18 18 18 18 18 18 18 18 18 17 17 17 17 17 17 17 17 17 17 17 17 17 17 17 17 17 17 17 17 16 16 16 16
21 21 22 22 22 22 22 21 21 20 20 20 19 19 19 19 19 19 19 18 18 18 18 18 18 18 17 17 17 17 17 17 17 17 17 17 17 17 17 17 17 17 17 17 17 16 17 16 16
22 22 22 22 22 22 21 21 20 20 20 20 19 19 19 19 19 19 19 18 18 18 18 18 18 18 17 17 17 17 17 17 17 17 17 17 17 17 17 16 16 16 17 16 16 16 16 16 16
22 21 21 21 22 22 21 20 20 20 20 19 19 19 19 19 19 19 19 19 19 18 18 18 18 17 17 17 17 17 17 17 17 17 17 17 16 16 16 16 16 16 16 16 16 16 16 16 16
21 20 19 21 21 22 20 19 20 20 20 19 19 19 19 19 19 19 19 19 19 18 18 18 18 17 17 17 17 17 17 17 17 17 17 16 16 16 16 16 16 16 16 16 16 16 16 16 16
19 19 19 20 21 21 20 19 19 20 20 19 19 19 19 19 19 19 19 19 19 18 18 18 18 17 17 17 17 17 17 17 16 16 16 16 16 16 16 16 16 16 16 16 16 16 16 16 16
19 19 19 20 21 21 20 19 19 20 20 19 19 19 19 19 19 19 19 19 19 18 18 18 18 17 17 17 17 16 16 16 16 16 16 16 16 16 16 16 16 16 16 16 16 16 16 16 16
20 20 20 20 21 21 19 19 19 20 20 19 19 19 19 19 19 19 19 19 19 18 18 18 18 17 17 17 17 16 16 16 16 16 16 16 16 16 16 16 16 16 16 16 16 16 16 16 16
21 20 20 20 21 21 19 19 19 19 19 20 19 19 19 19 19 19 19 19 19 18 18 18 18 17 17 17 17 16 16 16 16 16 16 16 16 16 16 16 16 16 16 16 16 16 16 16 15
21 20 20 20 20 20 20 19 18 19 20 20 20 20 20 20 19 19 19 19 19 18 18 18 18 17 17 17 17 16 16 16 16 16 16 16 16 16 16 16 16 16 16 16 15 15 15 15 15
20 21 22 21 19 18 19 17 18 18 18 18 19 20 20 20 19 19 19 19 19 19 18 18 18 17 17 17 17 16 16 16 16 16 16 16 16 16 16 16 16 16 16 15 15 15 15 15 15
21 22 21 20 19 18 18 17 17 18 18 18 19 20 20 20 20 19 19 19 19 18 18 18 18 17 17 17 17 16 16 16 16 16 16 16 16 16 16 15 15 15 15 15 15 15 15 15 15
21 20 19 17 17 17 18 18 17 17 18 19 19 20 20 20 20 20 19 19 19 18 18 18 18 17 17 17 16 16 16 16 16 16 16 16 16 15 15 15 15 15 15 15 15 15 15 15 15
19 17 17 17 16 17 18 18 18 19 19 20 20 20 20 20 20 19 19 19 19 18 18 18 18 17 17 17 17 16 16 16 16 16 16 16 15 15 15 15 15 15 15 15 15 15 15 15 15
19 17 17 17 17 17 18 18 18 20 20 21 21 21 20 20 20 20 19 19 19 19 18 18 18 17 17 17 17 16 16 16 16 16 16 16 15 15 15 15 15 15 15 15 15 15 15 15 14
19 18 17 17 17 17 17 18 19 19 19 19 20 20 20 20 20 20 19 19 19 19 18 18 18 17 17 17 17 16 16 16 16 16 16 15 15 15 15 15 15 15 15 15 15 15 15 14 14
20 18 16 16 17 16 17 17 17 18 18 18 18 19 19 20 20 20 19 19 19 19 19 18 18 17 17 17 17 16 16 16 16 16 16 15 15 15 15 15 15 15 15 15 14 14 14 14 14
19 19 17 15 16 16 16 16 18 18 18 18 18 19 19 20 19 19 19 19 19 19 18 18 18 18 17 17 17 16 16 16 16 16 16 15 15 15 15 15 15 15 15 15 14 14 14 14 14
19 19 17 16 16 15 15 16 19 18 18 18 19 19 19 19 19 19 19 19 18 18 18 18 18 17 17 17 17 16 16 16 16 16 15 15 15 15 15 15 15 15 15 14 14 14 14 14 14
Wind_Speed
2 2 3 3 5 6 4 3 2 3 4 5 8 9 8 6 5 5 1 5 7 4 6 9 10 11 12 12 12 12 12 12 13 13 13 13 13 12 12 12 12 12 11 11 10 10 10 10 10
1 1 3 5 5 4 2 1 4 4 6 6 8 8 8 6 5 5 3 6 7 7 8 10 11 11 11 11 11 11 11 12 12 12 12 12 12 12 12 12 12 12 11 11 10 10 10 10 11
1 1 4 4 4 3 3 1 4 5 6 5 5 6 5 4 3 3 5 8 7 7 8 10 11 10 10 11 11 10 11 11 11 12 12 11 12 11 11 12 12 11 11 11 10 10 10 11 11
3 4 5 6 5 2 4 3 4 6 6 6 6 6 4 3 3 5 8 8 8 6 7 9 11 10 10 10 10 9 9 10 11 11 11 11 11 10 10 11 11 11 10 10 10 10 10 10 10
4 4 6 4 3 1 2 3 4 6 4 6 7 6 4 3 5 8 9 8 8 5 6 9 10 10 9 9 9 8 8 9 10 10 10 9 10 10 9 10 10 10 9 9 9 9 10 10 10
4 4 5 3 3 2 2 4 7 8 7 7 7 6 2 2 5 6 7 7 7 7 6 7 9 9 8 8 8 7 7 7 8 8 8 8 8 9 8 8 8 8 8 8 8 8 9 10 11
4 4 3 4 4 3 2 4 6 6 5 4 6 6 3 2 3 5 6 6 6 7 6 5 5 6 7 6 6 5 5 5 6 7 7 6 6 6 7 7 7 8 7 7 6 7 8 10 11
5 5 3 2 4 2 2 4 5 6 4 4 5 7 5 4 4 6 5 5 5 4 4 4 4 4 4 4 4 4 4 3 3 4 5 5 5 5 5 6 6 7 7 6 6 7 8 10 11
4 5 2 2 4 3 3 5 4 4 6 4 4 4 6 8 7 7 5 4 4 4 3 3 4 4 4 3 3 2 2 2 3 3 3 3 3 3 3 5 5 5 5 6 6 6 8 10 11
5 4 2 3 5 5 4 5 5 5 6 5 6 7 9 9 8 7 6 5 4 3 3 3 3 4 3 2 2 1 1 3 4 3 4 3 2 2 3 4 4 4 5 5 5 5 6 7 8
4 4 3 3 4 6 5 4 4 8 4 5 9 11 9 9 8 7 7 6 5 4 3 3 3 3 3 2 2 2 2 3 4 5 6 6 5 4 3 3 4 4 5 5 6 6 6 6 7
4 2 4 3 4 5 4 4 4 4 5 8 12 12 10 9 8 8 7 6 5 4 3 4 3 3 3 4 3 4 3 3 4 6 7 7 5 4 3 2 3 3 4 4 5 5 6 7 7
4 3 4 4 5 5 6 5 5 4 7 10 11 10 9 8 7 7 7 7 5 4 3 3 5 5 4 4 3 4 4 5 6 6 6 7 5 3 3 2 3 4 5 5 5 5 6 6 6
5 5 4 4 4 3 5 3 5 5 10 10 10 9 8 8 8 6 6 6 5 5 4 4 5 5 5 4 3 3 5 6 7 6 6 6 6 4 3 3 3 4 5 6 6 6 5 4 5
5 4 2 1 2 3 5 2 3 7 10 10 10 9 8 7 7 8 8 7 6 6 5 5 6 5 5 5 4 5 5 6 6 6 7 7 7 7 5 4 3 3 6 7 7 7 6 5 5
3 3 0 3 3 4 6 3 5 8 11 9 8 8 8 7 7 7 7 7 7 6 6 5 7 6 5 4 4 4 5 6 6 7 8 8 8 8 7 4 3 5 7 6 4 4 5 5 4
2 2 2 3 4 4 5 5 7 8 10 10 9 8 8 7 6 7 7 8 8 8 7 6 6 6 5 5 4 5 5 5 5 7 7 7 8 8 7 4 4 6 5 4 4 4 3 4 3
4 3 3 5 4 4 4 6 7 9 10 11 10 9 8 9 8 7 8 8 8 8 7 7 6 6 5 4 4 3 4 3 5 5 5 7 7 8 7 5 5 6 4 4 4 4 4 3 2
5 3 3 6 5 3 5 6 8 10 9 10 10 10 10 10 8 8 9 8 8 7 7 7 6 5 5 3 3 3 2 1 2 3 6 7 7 7 7 5 4 4 4 4 4 3 4 3 2
4 3 3 4 3 2 4 6 7 8 11 12 13 12 12 9 7 8 8 8 8 8 8 7 7 6 5 4 3 3 3 2 1 2 4 6 6 6 6 5 4 3 4 5 4 4 3 2 2
4 5 5 4 2 2 0 4 5 5 6 7 9 11 11 13 12 10 9 8 8 9 9 9 8 7 6 6 4 4 4 3 2 2 2 3 5 6 6 5 5 4 3 3 3 3 4 2 2
4 4 3 3 1 3 2 3 7 6 6 9 10 10 11 11 12 11 10 9 10 9 9 9 8 8 6 7 6 6 4 3 2 1 0 1 3 5 6 6 5 4 3 3 2 3 3 3 2
4 3 1 2 2 2 2 2 7 3 6 11 11 12 12 12 14 13 12 11 10 9 9 9 8 7 7 7 8 7 4 3 2 2 2 1 2 3 5 5 5 4 3 2 3 3 3 3 2
1 4 5 4 3 2 5 4 6 5 9 9 11 11 12 13 13 13 12 10 8 8 8 8 9 7 7 7 7 8 7 5 4 3 2 1 1 1 3 4 4 4 3 2 2 3 4 3 3
5 5 3 4 2 5 3 3 6 7 7 9 11 12 12 12 12 12 11 10 9 9 9 9 10 8 7 8 7 7 7 7 6 5 4 3 1 1 1 2 3 2 3 3 3 3 3 3 3
2 7 5 3 3 4 2 4 5 5 3 4 6 8 9 10 11 13 13 13 11 11 10 10 10 9 9 8 7 7 7 5 4 4 4 4 3 3 2 3 3 3 3 3 3 3 2 3 3
3 3 6 5 1 2 4 3 5 6 4 1 3 5 8 10 11 12 12 12 11 11 11 12 11 9 9 9 7 6 6 6 5 5 4 3 3 3 3 3 3 3 3 3 4 3 2 3 3
4 4 4 3 2 2 4 3 3 4 3 1 2 5 7 8 9 9 10 12 11 11 10 10 10 10 8 8 7 7 6 6 5 5 4 4 3 3 4 3 3 3 2 3 3 3 2 3 2
1 1 3 3 4 4 2 5 4 6 3 2 3 4 6 9 10 9 9 8 9 9 9 9 9 8 8 8 7 6 5 5 5 5 5 5 4 4 4 4 4 3 3 3 4 3 3 3 2
4 3 4 3 3 3 3 5 5 4 3 2 2 3 3 5 7 8 8 7 7 8 8 9 9 8 8 8 7 6 6 5 5 5 5 5 5 4 4 4 4 4 3 3 4 3 3 3 2
Wind_Direction
305 357 77 54 55 56 52 13 57 60 60 58 72 80 81 62 77 115 176 132 124 114 101 105 97 90 86 85 84 84 83 80 79 78 77 79 81 83 83 82 82 81 78 76 72 71 70 67 63
348 39 61 56 74 78 40 29 79 84 124 114 79 74 74 70 80 104 120 134 125 119 108 106 101 95 90 87 87 87 84 83 81 80 79 78 79 81 83 83 82 81 78 76 73 71 68 65 61
333 63 71 62 78 123 140 132 104 88 91 92 80 57 67 89 98 121 149 139 124 118 114 113 108 102 96 91 88 87 86 85 84 82 81 80 79 79 81 83 82 80 78 74 72 70 65 62 61
59 47 56 70 81 119 152 167 132 107 72 61 93 68 55 47 123 142 142 133 126 123 124 124 117 110 104 99 97 93 91 91 88 86 85 83 81 78 80 83 82 80 78 74 71 68 63 60 60
66 72 66 66 64 60 131 138 110 94 79 78 91 88 60 17 101 128 134 133 134 137 136 130 121 117 112 108 104 101 98 95 92 89 89 87 84 79 81 84 82 80 78 75 71 67 62 59 60
55 65 83 92 92 68 65 103 96 92 103 104 98 99 89 107 113 132 137 143 146 147 148 139 132 129 121 117 112 107 105 103 100 96 94 91 86 81 82 85 84 82 79 74 68 64 60 57 60
100 86 103 125 113 91 108 102 100 106 107 109 116 103 119 136 140 129 128 136 147 149 146 148 152 142 135 128 123 118 114 111 111 106 103 100 95 88 85 84 85 82 81 74 66 60 55 55 60
124 99 81 104 119 123 127 103 108 107 105 108 109 127 155 184 149 126 122 122 131 140 150 165 174 163 153 147 139 123 111 103 105 113 114 109 100 94 89 83 81 80 76 71 61 54 52 56 63
91 79 106 156 142 143 118 100 93 86 93 71 78 127 151 147 132 117 111 103 118 136 152 163 180 195 190 174 155 127 96 67 61 88 108 98 90 89 91 86 81 80 72 60 49 46 51 54 61
82 112 174 172 150 141 127 118 126 94 86 80 78 92 122 134 133 133 136 136 140 154 170 172 173 191 196 173 130 99 56 33 43 63 84 105 115 115 92 82 72 65 59 51 42 36 42 53 58
116 147 138 113 126 124 115 108 110 118 120 152 143 145 146 142 144 151 156 158 162 168 165 173 172 165 169 146 113 83 67 55 50 72 93 97 97 91 79 51 33 29 36 35 32 36 46 60 72
111 117 127 117 110 114 122 117 95 123 167 160 151 151 151 153 162 166 165 167 158 149 158 167 151 131 123 112 108 99 83 74 63 66 88 96 91 82 78 63 41 37 40 45 50 59 63 68 78
101 104 104 116 107 110 104 111 120 130 139 140 142 146 156 159 167 175 170 165 156 154 150 141 124 119 111 101 99 90 80 73 67 60 67 87 91 86 80 69 61 57 61 65 67 65 64 67 70
130 117 109 118 119 119 115 118 117 158 147 144 151 161 169 168 169 167 166 167 168 159 141 122 115 117 109 104 95 91 83 74 66 55 57 80 91 89 82 66 57 53 64 74 78 75 70 66 70
111 92 57 138 150 153 111 65 172 166 153 156 167 174 177 181 174 175 178 172 170 163 145 130 125 110 103 100 97 94 88 80 68 58 56 74 85 86 84 74 58 53 66 74 76 69 70 69 66
73 71 47 259 188 172 130 205 221 170 160 169 178 180 180 188 186 185 178 169 164 156 147 137 130 116 106 103 98 95 86 77 67 63 60 70 81 87 84 79 64 66 70 73 73 66 70 65 63
42 153 218 259 222 183 159 206 218 184 168 178 187 187 184 189 193 188 177 164 163 159 147 134 124 122 118 108 99 92 83 74 70 66 62 67 77 84 85 81 74 76 69 62 75 65 75 74 63
206 196 213 230 239 191 197 221 210 196 181 186 190 191 188 193 196 180 169 163 158 155 146 138 130 127 118 105 94 78 66 59 63 59 61 70 77 84 84 80 73 77 71 60 68 74 62 72 73
184 183 226 244 239 197 213 224 216 204 193 193 192 189 192 201 195 173 166 158 149 148 145 143 138 138 126 119 117 108 101 77 51 49 67 72 82 85 84 83 73 77 81 77 78 81 66 52 65
198 215 249 270 251 195 221 239 225 210 205 197 192 192 196 192 181 178 170 162 161 161 158 154 153 152 147 146 147 141 135 125 111 49 57 71 78 80 89 89 85 81 84 72 68 79 79 49 47
226 205 216 227 280 332 64 298 262 241 222 208 199 195 193 187 182 181 175 174 169 168 168 165 165 159 154 141 121 100 75 60 52 44 26 39 78 79 83 90 93 87 91 90 84 96 101 89 26
240 233 206 189 127 269 198 262 270 232 224 214 208 200 197 189 181 178 177 175 177 178 172 165 165 161 155 143 139 140 135 141 178 167 130 30 67 85 91 95 95 92 90 93 91 95 101 108 76
215 224 191 197 171 291 273 203 280 227 224 224 213 205 199 189 182 179 181 180 180 176 171 169 162 161 159 153 150 144 142 152 147 122 112 66 47 73 90 96 95 91 86 95 86 85 85 94 109
157 32 17 41 80 266 237 196 269 230 220 220 212 205 196 188 185 183 181 176 175 172 168 165 161 165 163 159 155 153 154 152 142 146 146 114 60 52 80 99 97 96 91 91 95 95 93 90 90
75 79 26 357 3 261 240 196 250 253 228 210 203 202 196 187 182 178 174 175 174 172 169 165 164 168 170 165 165 168 166 163 164 169 167 155 141 138 160 105 102 94 98 100 101 94 89 92 90
169 142 160 200 229 279 295 231 264 291 249 190 189 188 183 180 182 181 180 180 179 175 170 168 169 171 174 173 175 176 171 168 176 176 170 174 181 187 172 131 110 104 101 99 97 93 92 93 90
159 187 179 153 229 271 284 295 324 347 359 70 149 164 180 181 180 183 183 181 179 177 177 175 173 171 176 178 175 176 176 174 180 177 171 178 184 176 154 136 123 113 111 112 109 97 90 94 91
164 160 101 123 167 251 288 277 259 279 294 329 193 191 187 181 180 180 181 184 183 183 179 173 171 175 178 176 178 180 183 180 176 164 168 178 181 162 148 143 134 120 112 111 107 104 102 93 81
243 133 130 146 167 170 248 271 239 216 212 201 205 198 193 183 181 182 182 181 181 179 174 173 173 171 175 178 177 172 175 171 162 168 177 176 168 157 151 153 143 130 121 115 111 110 107 100 75
193 193 153 162 234 184 188 259 277 209 196 194 206 192 186 180 182 179 174 168 169 175 177 178 177 177 181 176 166 167 170 162 161 175 184 171 161 157 153 149 141 137 134 131 125 125 116 116 108
Height
1519 1519 1518 1519 1522 1533 1537 1533 1528 1527 1527 1528 1527 1528 1531 1535 1538 1545 1543 1541 1541 1540 1538 1538 1538 1538 1538 1537 1536 1536 1536 1535 1535 1534 1534 1534 1533 1533 1532 1532 1532 1531 1531 1531 1531 1531 1530 1530 1530
1520 1519 1520 1520 1530 1544 1542 1532 1530 1528 1528 1529 1530 1531 1533 1537 1539 1540 1541 1542 1542 1541 1540 1540 1540 1539 1539 1538 1537 1537 1537 1536 1536 1536 1535 1535 1535 1534 1534 1534 1533 1533 1532 1532 1532 1532 1532 1532 1531
1520 1520 1522 1524 1534 1542 1539 1531 1529 1528 1529 1529 1532 1534 1536 1539 1540 1541 1542 1543 1543 1543 1542 1542 1541 1541 1540 1540 1539 1538 1538 1538 1537 1537 1537 1537 1536 1536 1535 1535 1535 1534 1534 1534 1534 1534 1533 1533 1533
1521 1522 1524 1531 1537 1534 1531 1530 1528 1529 1530 1531 1533 1537 1539 1541 1541 1542 1543 1544 1544 1544 1544 1543 1542 1542 1542 1541 1541 1540 1540 1539 1539 1539 1539 1538 1538 1537 1537 1537 1536 1536 1536 1535 1535 1535 1535 1534 1534
1521 1523 1530 1538 1536 1532 1529 1528 1529 1529 1531 1534 1534 1539 1542 1543 1543 1543 1544 1545 1545 1545 1545 1545 1544 1544 1543 1542 1542 1542 1542 1541 1541 1541 1540 1540 1540 1539 1539 1538 1538 1537 1537 1537 1537 1537 1536 1536 1535
1523 1525 1538 1543 1538 1532 1530 1529 1530 1532 1534 1535 1536 1540 1543 1544 1544 1545 1545 1546 1546 1546 1546 1546 1546 1545 1545 1544 1544 1544 1543 1543 1543 1543 1542 1542 1541 1541 1540 1540 1540 1539 1539 1539 1539 1539 1538 1537 1537
1524 1530 1538 1539 1538 1536 1532 1530 1531 1533 1534 1536 1537 1540 1544 1545 1546 1546 1546 1547 1547 1547 1547 1547 1547 1547 1546 1546 1546 1546 1545 1545 1545 1545 1544 1544 1543 1543 1542 1542 1541 1541 1541 1541 1541 1541 1540 1539 1538
1523 1529 1537 1539 1538 1536 1532 1531 1532 1533 1535 1537 1538 1540 1543 1545 1546 1547 1548 1548 1548 1549 1549 1548 1548 1548 1548 1548 1548 1547 1547 1547 1547 1546 1546 1546 1545 1544 1544 1544 1543 1543 1543 1543 1543 1542 1542 1541 1540
1524 1534 1540 1537 1536 1535 1532 1532 1534 1535 1536 1537 1538 1540 1542 1545 1546 1547 1548 1549 1549 1549 1549 1549 1549 1549 1549 1549 1549 1549 1549 1548 1548 1548 1547 1547 1547 1546 1546 1546 1546 1545 1545 1545 1545 1544 1544 1543 1542
1525 1536 1534 1530 1530 1531 1532 1532 1534 1537 1538 1539 1540 1542 1543 1545 1546 1547 1548 1549 1549 1550 1550 1550 1550 1550 1550 1550 1550 1550 1550 1550 1549 1549 1549 1549 1548 1548 1548 1548 1548 1548 1547 1547 1546 1546 1545 1545 1544
1526 1531 1529 1529 1529 1530 1532 1533 1534 1536 1539 1540 1540 1542 1544 1545 1546 1547 1548 1549 1549 1550 1551 1551 1551 1551 1551 1551 1551 1551 1551 1551 1551 1550 1550 1550 1550 1550 1549 1549 1549 1549 1549 1548 1548 1548 1547 1546 1546
1527 1528 1528 1530 1530 1531 1532 1534 1535 1536 1538 1539 1540 1541 1543 1545 1546 1547 1548 1549 1550 1550 1551 1551 1552 1552 1552 1552 1552 1552 1552 1552 1551 1551 1551 1551 1551 1551 1551 1551 1551 1551 1550 1550 1550 1549 1549 1548 1548
1528 1529 1529 1530 1531 1531 1532 1534 1536 1537 1538 1540 1541 1543 1544 1545 1546 1547 1548 1549 1550 1551 1551 1552 1552 1552 1553 1553 1553 1553 1552 1552 1552 1552 1552 1552 1552 1552 1552 1552 1552 1552 1552 1552 1551 1551 1550 1550 1549
1529 1529 1530 1531 1531 1532 1534 1535 1536 1538 1538 1540 1541 1543 1544 1545 1546 1547 1548 1549 1550 1551 1552 1552 1552 1553 1553 1553 1553 1553 1553 1553 1553 1553 1553 1553 1553 1553 1553 1553 1553 1553 1553 1553 1552 1552 1552 1551 1551
1529 1531 1533 1532 1532 1533 1534 1538 1536 1537 1538 1540 1541 1542 1544 1545 1546 1546 1547 1548 1550 1551 1552 1552 1553 1553 1553 1554 1554 1554 1554 1554 1554 1554 1554 1554 1554 1554 1554 1554 1554 1554 1554 1554 1554 1553 1553 1553 1553
1531 1536 1541 1534 1531 1532 1537 1544 1536 1536 1537 1539 1540 1542 1543 1544 1545 1546 1547 1548 1549 1551 1552 1552 1553 1553 1554 1554 1554 1555 1555 1555 1555 1555 1554 1554 1554 1554 1554 1554 1554 1554 1555 1554 1554 1554 1554 1554 1554
1537 1544 1543 1537 1530 1531 1535 1539 1534 1535 1536 1538 1539 1540 1542 1543 1544 1545 1546 1547 1549 1550 1551 1552 1552 1553 1554 1554 1554 1555 1555 1555 1555 1555 1555 1555 1555 1555 1555 1555 1555 1555 1555 1555 1555 1555 1555 1555 1555
1543 1542 1541 1539 1531 1531 1534 1535 1532 1533 1534 1535 1537 1538 1539 1541 1542 1544 1545 1547 1548 1549 1550 1551 1552 1553 1553 1554 1554 1555 1555 1556 1556 1556 1555 1555 1555 1555 1555 1555 1555 1556 1555 1555 1556 1556 1556 1556 1556
1532 1536 1539 1535 1528 1530 1534 1533 1531 1530 1532 1533 1534 1535 1537 1539 1541 1542 1544 1545 1547 1548 1550 1551 1552 1552 1553 1554 1554 1554 1555 1555 1556 1556 1556 1556 1555 1555 1555 1555 1556 1556 1556 1556 1556 1556 1557 1557 1557
1530 1535 1536 1532 1527 1529 1533 1532 1528 1528 1528 1528 1530 1532 1534 1536 1539 1541 1542 1544 1545 1547 1548 1550 1551 1552 1552 1553 1554 1554 1555 1555 1555 1556 1556 1556 1555 1555 1556 1556 1556 1556 1556 1556 1556 1557 1557 1557 1557
1530 1533 1533 1533 1529 1528 1532 1536 1530 1526 1526 1527 1528 1529 1531 1533 1535 1538 1540 1542 1544 1545 1547 1548 1550 1551 1552 1553 1554 1554 1555 1555 1555 1556 1556 1556 1556 1556 1556 1556 1556 1556 1556 1556 1556 1557 1557 1557 1557
1532 1525 1525 1528 1536 1542 1537 1550 1533 1526 1525 1524 1524 1526 1527 1530 1532 1535 1537 1539 1542 1544 1546 1547 1549 1550 1551 1552 1553 1554 1554 1554 1555 1555 1556 1556 1556 1556 1556 1556 1556 1556 1556 1556 1557 1557 1557 1557 1557
1525 1521 1523 1527 1534 1541 1539 1546 1538 1526 1526 1521 1520 1521 1523 1526 1529 1532 1534 1537 1540 1542 1544 1546 1548 1549 1550 1552 1552 1553 1554 1554 1555 1555 1556 1556 1556 1556 1556 1556 1556 1556 1556 1556 1557 1557 1557 1557 1557
1520 1524 1527 1533 1540 1550 1539 1544 1540 1527 1520 1515 1515 1517 1520 1523 1526 1529 1532 1535 1538 1540 1543 1544 1546 1548 1550 1551 1552 1552 1553 1554 1554 1555 1555 1555 1556 1556 1556 1556 1556 1556 1556 1556 1557 1557 1557 1557 1557
1524 1538 1552 1553 1558 1552 1535 1538 1534 1516 1511 1510 1511 1513 1516 1520 1523 1527 1530 1533 1536 1538 1540 1543 1545 1547 1548 1550 1551 1552 1553 1553 1554 1554 1555 1555 1555 1556 1556 1556 1556 1556 1556 1557 1557 1557 1557 1557 1557
1527 1535 1552 1559 1559 1550 1535 1536 1526 1512 1508 1507 1508 1511 1514 1517 1521 1524 1527 1530 1533 1536 1538 1541 1543 1545 1547 1548 1550 1551 1552 1552 1553 1554 1554 1555 1555 1555 1556 1556 1556 1556 1556 1557 1557 1557 1557 1557 1557
1526 1532 1532 1543 1545 1549 1542 1530 1520 1511 1509 1508 1509 1511 1513 1516 1519 1522 1525 1528 1531 1533 1536 1538 1541 1543 1545 1547 1548 1550 1551 1552 1552 1553 1553 1554 1555 1555 1555 1556 1556 1556 1556 1557 1557 1557 1557 1557 1557
1519 1524 1535 1543 1552 1555 1544 1538 1533 1520 1515 1512 1510 1511 1512 1515 1517 1520 1523 1526 1529 1531 1534 1537 1539 1541 1544 1545 1547 1548 1550 1551 1551 1552 1552 1553 1554 1554 1555 1555 1555 1556 1556 1556 1556 1556 1556 1556 1556
1522 1525 1531 1539 1542 1551 1553 1544 1518 1516 1514 1513 1511 1511 1512 1513 1515 1518 1521 1524 1527 1530 1532 1535 1537 1539 1542 1544 1545 1547 1548 1549 1550 1550 1551 1552 1552 1553 1554 1554 1555 1555 1555 1555 1556 1556 1556 1556 1556
1518 1521 1529 1541 1543 1542 1546 1540 1512 1511 1510 1511 1510 1510 1511 1513 1514 1516 1519 1522 1525 1528 1530 1533 1535 1537 1540 1542 1543 1545 1546 1547 1548 1549 1549 1550 1551 1552 1552 1553 1554 1554 1555 1555 1555 1555 1555 1555 1555